Regional Weather Roundup
Issued by NWS

Current Version | Previous Version | Text Only | Print | Product List | Glossary On
Versions: 1 2 3 4 5 6 7 8 9 10 11 12 13 14 15 16 17 18 19 20 21 22 23 24 25 26 27 28 29 30 31 32 33 34 35 36 37 38 39 40 41 42 43 44 45 46 47 48 49 50
000
ASUS44 KLIX 060512
RWRLA
LOUISIANA WEATHER ROUNDUP
NATIONAL WEATHER SERVICE NEW ORLEANS LA
1200 AM CDT MON JUL 06 2015

NOTE: "FAIR" INDICATES FEW OR NO CLOUDS BELOW 12,000 FEET WITH NO
      SIGNIFICANT WEATHER AND/OR OBSTRUCTIONS TO VISIBILITY.
      SKY/WX - SKY CONDITION AND SIGNIFICANT WEATHER.
      TMP - AIR TEMPERATURE.    DP   - DEWPOINT TEMPERATURE.
      RH  - RELATIVE HUMIDITY.  PRES - PRESSURE.
      HX  - HEAT INDEX.         WCI  - WIND CHILL INDEX.

*  THESE STATIONS ARE NOT NWS OR FAA STATIONS AND ARE NOT UNDER
   NWS QUALITY CONTROL.

LAZ040-048-061>063-065-066-069-060600-
SOUTHEAST LOUISIANA

CITY           SKY/WX    TMP DP  RH WIND       PRES   REMARKS
N.O. AUDUBON     N/A     75  70  84 MISG        N/A
N.O. INTL ARPT MOCLDY    73  67  81 S9        30.09F
N.O. LAKEFRONT MOCLDY    76  67  73 S13       30.09F
N.O. DOWNTOWN* FAIR      79  68  69 S6        30.10F
RESERVE*       NOT AVBL
SLIDELL        MOCLDY    71  71 100 NE3       30.09S
BATON ROUGE    MOCLDY    71  68  90 S8        30.08F
BOOTHVILLE     CLOUDY    77  70  79 SE9       30.11F
BELLE CHASSE   MOCLDY    72  70  93 SW6       30.10F
BOGALUSA*        N/A     70  67  89 CALM      30.10S
GALLIANO*      MOCLDY    77  70  79 CALM      30.11S
NEW ROADS*     FAIR     N/A N/A N/A S7        30.08F
GONZALES*      FAIR      73  73 100 S9        30.08F
HAMMOND*       PTCLDY    70  68  94 E3        30.10F
HOUMA*         PTCLDY    72  71  96 CALM      30.11F
PORT FOURCHON* CLEAR     81  70  69 SE16      30.12S

$$

LAZ041-044-053-054-060600-
SOUTHWEST LOUISIANA

CITY           SKY/WX    TMP DP  RH WIND       PRES   REMARKS
LAKE CHARLES   PTCLDY    79  76  90 SE5       30.07F
LAFAYETTE      PTCLDY    73  69  87 S5        30.09F
PATTERSON      CLEAR     72  68  88 SE3       30.12F
SALT POINT       N/A     75  70  84 SE7       30.09F
NEW IBERIA     NOT AVBL
CHENAULT AIRPK PTCLDY    75  74  96 E3        30.08F

$$

LAZ027-028-060600-
CENTRAL LOUISIANA

CITY           SKY/WX    TMP DP  RH WIND       PRES   REMARKS
FORT POLK      MOCLDY    72  68  87 SE7       30.07F
ALEXANDRIA INT MOCLDY    71  68  90 CALM      30.05S
ALEXANDRIA     MOCLDY    71  68  90 SW6       30.06S

$$

LAZ001-002-060600-
NORTHWEST LOUISIANA

CITY           SKY/WX    TMP DP  RH WIND       PRES   REMARKS
SHREVEPORT     MOCLDY    74  70  87 S9        30.03S
BARKSDALE AFB  PTCLDY    74  70  87 S12       30.02F
DTN SHREVEPORT MOCLDY    74  69  85 S12       30.03S

$$

LAZ014-016-060600-
NORTHEAST LOUISIANA

CITY           SKY/WX    TMP DP  RH WIND       PRES   REMARKS
MONROE         PTCLDY    68  67  96 CALM      30.06R
TALLULAH       PTCLDY    69  67  93 SE3       30.06S

$$




USA.gov is the U.S. government's official web portal to all federal, state and local government web resources and services.